ATLAS D DEB, 2327

Orbit data source: Space-Track

ATLAS D DEB, 2327 is space debris in LEO originally from a launch on Thu, 14 Jul 1966 UTC launched from the Air Force Western Test Range (AFWTR). Debris objects in space refer to the collection of defunct objects orbiting the Earth. Examples of debris include non-operational satellites, rocket bodies, and fragments generated from explosions, collisions, or faulty payload assembly.

Loading next visibility...
ATLAS D DEB details
Identifier
2327, 1966-063B
Orbit
LEO
Last TLE update15 hours ago
Origin
Flag of USUSAF OAR (US)
ManufacturerGoodyear
MissionSpacecraft
Bus & MotorCONTAINER, Unknown motor
Mass2 kg wet, 2 kg dry
Launch date (UTC)
1966-07-14 (58 years ago)
Launch vehicleUnknown
Launch site
Air Force Western Test Range (AFWTR)
Object type
Payload
Rocket body
Debris
Shape & HBRHalf Cyl, 0.5 m
Radar Cross Section0.210 m², Medium (>0.1 m² and < 1m²)

Expand to show TLE details & history

TLE from 15 hours ago
0 ATLAS D DEB
1 02327U 66063B   24355.95336244  .00002215  00000-0  12092-2 0  9996
2 02327 144.1987   4.1101 0030215 173.7313 186.3755 14.03947700961683
Epoch: 2024-12-20T22:52Z
Definitive object data (Epoch: 2024-12-20T22:52:50.514Z)
Latitude-0.00003°
Longitude-69.11182°
Altitude900.993 km
Speed7.392 km/s
True Right ascension00h 16m 26s
True Declination0° 00' 00"
Sunlit
Object was in daylight at TLE epoch
Visualization TLE readout
Latitude-1.98951°
Longitude-63.07372°
Altitude901.389 km
Speed7.392 km/s
Apparent Right ascension00h 54m 43s
Apparent Declination-19° 35' 51"
Sunlit
Object is in daylight
Visualization observer readout
Local Sidereal Time13:15:44
Azimuth14.049° NNE
Elevation-69.186°
Doppler factor1
Orbital elements
Apogee altitude905.055 km
Perigee altitude861.176 km
Semi-major axis7,261.253 km
Eccentricity0.0030215
Inclination144.1987°
RAAN4.1101°
Arg. of periapsis173.7313°
True anomaly186.3372°
Mean anomaly186.3755°
Eccentric anomaly186.35633°
Mean motion3.50773 °/min
BSTAR0.0012092
Orbital period102.63 mins
Loading maneuver chart data...
Loading historical data...
Loading historical data...
Loading historical data...
Loading historical data...
Loading historical data...
Loading historical data...
Loading historical data...

ATLAS D DEB Visibility forecast

Observer location: undefined°, undefined

Span
Click to sort rows by Start time (UTC) header in descending order
Start Az.
Max El. time (UTC)
Max El. Az.
Max El.
End time (UTC)
End Az.
7 mins2024-12-21 16:28:39.097Z106.573° ESE2024-12-21 16:32:39.097Z165.317° S23.945°2024-12-21 16:35:39.097Z206.109° SW
8 mins2024-12-21 18:05:39.097Z99.236° ESE2024-12-21 18:09:39.097Z173.084° S37.265°2024-12-21 18:13:39.097Z239.685° WSW
9 mins2024-12-21 19:42:39.097Z106.436° ESE2024-12-21 19:46:39.097Z178.547° S40.548°2024-12-21 19:51:39.097Z260.629° W
8 mins2024-12-21 21:20:39.097Z134.535° SE2024-12-21 21:23:39.097Z186.972° SSW34.141°2024-12-21 21:28:39.097Z264.548° W
6 mins2024-12-21 22:58:39.097Z171.054° S2024-12-21 23:01:39.097Z211.844° SW19.538°2024-12-21 23:04:39.097Z249.057° W
|